ONEWEB-0120, 47266

Orbit data source: Space-Track

ONEWEB-0120, 47266 is a payload satellite owned by One Web (UK) in LEO that was launched on Fri, 18 Dec 2020 UTC via a SOYUZ-2-1B launch vehicle from the Vostochny Cosmodrome (VOSTO). Payload-class satellites include a variety of spacecraft equipped with specific instruments for various scientific and technological missions. These include communications satellites like Starlink; space stations such as the ISS; scientific satellites like the Hubble; Earth observation satellites from companies like Planet Labs, Umbra, and HawkEye 360; GPS; miniature CubeSats for education and research; and military/defense satellites.

Loading next visibility...
Identifier
47266, 2020-100J
Orbit
LEO
Country
Flag of UKUK
Related business
Manufacturer
One Web
Mission
Operational Commercial Communications
Bus & Motor
ARROW, Unknown motor
Mass
148 kg wet, ~140 kg dry
Launch date (UTC)
2020-12-18 (6 years ago)
Launch vehicle
SOYUZ-2-1B
Launch site
Vostochny Cosmodrome (VOSTO)
Object type
Payload
Rocket body
Debris
Shape & HBR
Trap Box + 2 Pan, 6.7 m
Radar Cross Section
3.464 m², Large (>1 m²)

Expand to show TLE details & history
Last TLE update: 2 days ago

TLE from 2 days ago
0 ONEWEB-0120
1 47266U 20100J   26171.43093054 -.00000116  00000-0 -35845-3 0  9991
2 47266  87.8939 350.0250 0001895  97.2698 262.8646 13.12442575265157
Epoch: 2026-06-20T10:20Z
TLE epoch observation values (Epoch: 2026-06-20T10:20:32.398Z)
Latitude
-0.00003°
Longitude
-73.75565°
Altitude
1,216.795 km
Speed
7.246 km/s
True Right ascension
23h 20m 05s
True Declination
0° 00' 00"
Sunlit
Object was in daylight at epoch
Visualization orbit readout
Latitude
Unknown
Longitude
Unknown
Altitude
Unknown
Speed
Unknown
Apparent Right ascension
Unknown
Apparent Declination
Unknown
Sunlit
N/A
Visualization observer readout
Local Sidereal Time
23:27:12
Azimuth
Unknown
Elevation
Unknown
Doppler factor
Unknown
Orbital elements
Apogee altitude
1,212.28 km
Perigee altitude
1,209.403 km
Semi-major axis
7,588.979 km
Eccentricity
0.00019
Inclination
87.8939°
RAAN
350.025°
Arg. of periapsis
97.2698°
True anomaly
262.84305°
Mean anomaly
262.8646°
Eccentric anomaly
262.85383°
Mean motion
3.28298 °/min
Orbital period
109.66 mins
BSTAR
-0.00035845
Loading maneuver chart data...
Computing Atmospheric mass density...
Loading historical data...
Loading historical data...
Loading historical data...
Loading historical data...
Loading historical data...
Loading historical data...
Loading historical data...

Documentation

Showing up to 5 results
|